Change the Weather History Date:

Saturday, December 28, 2013

  Actual Average (KBGD) Record (KBGD)
Temperature  
Mean Temperature 42 °F 37 °F  
Max Temperature 60 °F 49 °F 74 °F (1964)
Min Temperature 24 °F 25 °F 10 °F (1983)
Degree Days  
Heating Degree Days 23 28  
Month to date heating degree days 738  
Since 1 July heating degree days 1455  
Cooling Degree Days 0 0  
Month to date cooling degree days 0  
Year to date cooling degree days 1839  
Moisture  
Dew Point 25 °F    
Average Humidity 60    
Maximum Humidity 86    
Minimum Humidity 23    
Precipitation  
Precipitation 0.00 in 0.03 in 0.24 in (1983)
Month to date precipitation 0.66  
Year to date precipitation 21.61  
Snow  
Snow 0.00 in - - ()
Month to date snowfall  
Since 1 July snowfall  
Snow Depth -    
Sea Level Pressure  
Sea Level Pressure 29.96 in    
Wind  
Wind Speed 8 mph (SSW)    
Max Wind Speed 17 mph    
Max Gust Speed 23 mph    
Visibility 10 miles    
Events      
T = Trace of Precipitation, MM = Missing Value Source: NWS Daily Summary

Daily Weather History Graph

Daily Weather History Graph

Search for Another Location

Airport or City:

Trip Planner

Search our weather history database for the weather conditions in past years. The results will help you decide how hot, cold, wet, or windy it might be!

Date:

Astronomy

Dec. 28, 2013 Rise Set
Actual Time 7:53 AM CST 5:38 PM CST
Civil Twilight 7:25 AM CST 6:06 PM CST
Nautical Twilight 6:53 AM CST 6:38 PM CST
Astronomical Twilight 6:21 AM CST 7:10 PM CST
Moon 3:36 AM CST 2:27 PM CST
Length of Visible Light 10h 41m
Length of Day
9h 44m
Waning Crescent, 19% of the Moon is Illuminated
Dec 28
Waning Crescent
Jan 1
New
Jan 7
First Quarter
Jan 15
Full
Jan 23
Last Quarter

Hourly Weather History & Observations

Time (CST) Temp. Windchill Dew Point Humidity Pressure Visibility Wind Dir Wind Speed Gust Speed Precip Events Conditions
12:15 AM 32.0 °F 25.6 °F 24.8 °F 75% 30.20 in 10.0 mi WSW 6.9 mph - N/A   Clear
12:35 AM 30.2 °F 22.6 °F 24.8 °F 80% 30.19 in 10.0 mi West 8.1 mph - N/A   Clear
12:55 AM 32.0 °F 25.6 °F 24.8 °F 75% 30.19 in 10.0 mi West 6.9 mph - N/A   Clear
1:15 AM 30.2 °F 21.9 °F 24.8 °F 80% 30.18 in 10.0 mi West 9.2 mph - N/A   Clear
1:35 AM 30.2 °F 22.6 °F 24.8 °F 80% 30.17 in 10.0 mi WSW 8.1 mph - N/A   Clear
1:55 AM 30.2 °F 22.6 °F 24.8 °F 80% 30.17 in 10.0 mi SW 8.1 mph - N/A   Clear
2:15 AM 30.2 °F 23.4 °F 23.0 °F 75% 30.16 in 10.0 mi SW 6.9 mph - N/A   Clear
2:35 AM 28.4 °F 21.2 °F 23.0 °F 80% 30.15 in 10.0 mi SW 6.9 mph - N/A   Clear
2:55 AM 28.4 °F 20.4 °F 23.0 °F 80% 30.14 in 10.0 mi SW 8.1 mph - N/A   Clear
3:15 AM 30.2 °F 23.4 °F 23.0 °F 75% 30.14 in 10.0 mi SW 6.9 mph - N/A   Clear
3:35 AM 28.4 °F 22.2 °F 23.0 °F 80% 30.13 in 10.0 mi SW 5.8 mph - N/A   Clear
3:55 AM 28.4 °F 19.7 °F 21.2 °F 74% 30.12 in 10.0 mi SW 9.2 mph - N/A   Clear
4:15 AM 26.6 °F 17.5 °F 23.0 °F 86% 30.12 in 10.0 mi SW 9.2 mph - N/A   Clear
4:35 AM 26.6 °F 18.2 °F 21.2 °F 80% 30.11 in 10.0 mi SSW 8.1 mph - N/A   Clear
4:55 AM 26.6 °F 19.1 °F 21.2 °F 80% 30.10 in 10.0 mi SW 6.9 mph - N/A   Clear
5:15 AM 28.4 °F 22.2 °F 23.0 °F 80% 30.09 in 10.0 mi WSW 5.8 mph - N/A   Clear
5:35 AM 26.6 °F 21.2 °F 21.2 °F 80% 30.08 in 10.0 mi SSW 4.6 mph - N/A   Clear
5:55 AM 26.6 °F - 23.0 °F 86% 30.08 in 10.0 mi Calm Calm - N/A   Clear
6:15 AM 26.6 °F 19.1 °F 21.2 °F 80% 30.07 in 10.0 mi SSW 6.9 mph - N/A   Clear
6:35 AM 26.6 °F 20.0 °F 23.0 °F 86% 30.06 in 10.0 mi WSW 5.8 mph - N/A   Clear
6:55 AM 24.8 °F 19.1 °F 21.2 °F 86% 30.07 in 10.0 mi SE 4.6 mph - N/A   Clear
7:15 AM 28.4 °F 21.2 °F 23.0 °F 80% 30.06 in 10.0 mi SW 6.9 mph - N/A   Clear
7:35 AM 28.4 °F 22.2 °F 23.0 °F 80% 30.06 in 10.0 mi WSW 5.8 mph - N/A   Clear
7:55 AM 26.6 °F - 23.0 °F 86% 30.05 in 10.0 mi Calm Calm - N/A   Clear
8:15 AM 26.6 °F 21.2 °F 21.2 °F 80% 30.05 in 10.0 mi WSW 4.6 mph - N/A   Clear
8:35 AM 24.8 °F 17.9 °F 21.2 °F 86% 30.05 in 10.0 mi WSW 5.8 mph - N/A   Clear
8:55 AM 28.4 °F 24.6 °F 24.8 °F 86% 30.04 in 10.0 mi SSW 3.5 mph - N/A   Clear
9:15 AM 33.8 °F 28.6 °F 26.6 °F 75% 30.04 in 10.0 mi SW 5.8 mph - N/A   Clear
9:35 AM 35.6 °F 29.9 °F 26.6 °F 70% 30.04 in 10.0 mi SW 6.9 mph - N/A   Clear
9:55 AM 37.4 °F 31.4 °F 28.4 °F 70% 30.03 in 10.0 mi SW 8.1 mph - N/A   Clear
10:15 AM 41.0 °F 36.4 °F 28.4 °F 61% 30.03 in 10.0 mi SW 6.9 mph - N/A   Clear
10:35 AM 42.8 °F 38.0 °F 28.4 °F 57% 30.02 in 10.0 mi SW 8.1 mph - N/A   Clear
10:55 AM 44.6 °F 39.2 °F 30.2 °F 57% 30.01 in 10.0 mi SW 10.4 mph - N/A   Clear
11:15 AM 44.6 °F 43.1 °F 30.2 °F 57% 30.00 in 10.0 mi NW 3.5 mph - N/A   Clear
11:35 AM 46.4 °F 42.4 °F 30.2 °F 53% 29.98 in 10.0 mi SW 8.1 mph - N/A   Clear
11:55 AM 51.8 °F - 26.6 °F 38% 29.96 in 10.0 mi SW 15.0 mph 18.4 mph N/A   Clear
12:15 PM 53.6 °F - 26.6 °F 35% 29.94 in 10.0 mi SW 12.7 mph - N/A   Clear
12:35 PM 55.4 °F - 24.8 °F 31% 29.92 in 10.0 mi SW 17.3 mph 21.9 mph N/A   Clear
12:55 PM 55.4 °F - 23.0 °F 29% 29.91 in 10.0 mi SSW 17.3 mph 23.0 mph N/A   Clear
1:15 PM 55.4 °F - 23.0 °F 29% 29.89 in 10.0 mi SW 16.1 mph 23.0 mph N/A   Clear
1:35 PM 57.2 °F - 23.0 °F 27% 29.87 in 10.0 mi SSW 15.0 mph 21.9 mph N/A   Clear
1:55 PM 59.0 °F - 23.0 °F 25% 29.86 in 10.0 mi SSW 11.5 mph 23.0 mph N/A   Clear
2:15 PM 59.0 °F - 23.0 °F 25% 29.85 in 10.0 mi SW 13.8 mph - N/A   Clear
2:35 PM 59.0 °F - 23.0 °F 25% 29.83 in 10.0 mi SSW 11.5 mph 23.0 mph N/A   Clear
2:55 PM 60.8 °F - 23.0 °F 23% 29.82 in 10.0 mi SSW 16.1 mph 20.7 mph N/A   Clear
3:15 PM 59.0 °F - 21.2 °F 23% 29.82 in 10.0 mi SSW 15.0 mph - N/A   Clear
3:35 PM 59.0 °F - 21.2 °F 23% 29.81 in 10.0 mi South 15.0 mph 19.6 mph N/A   Clear
3:55 PM 59.0 °F - 21.2 °F 23% 29.81 in 10.0 mi South 16.1 mph 23.0 mph N/A   Clear
4:15 PM 59.0 °F - 21.2 °F 23% 29.81 in 10.0 mi South 13.8 mph 19.6 mph N/A   Clear
4:35 PM 59.0 °F - 23.0 °F 25% 29.80 in 10.0 mi South 13.8 mph 19.6 mph N/A   Clear
4:55 PM 55.4 °F - 23.0 °F 29% 29.80 in 10.0 mi South 10.4 mph - N/A   Clear
5:15 PM 55.4 °F - 23.0 °F 29% 29.80 in 10.0 mi South 9.2 mph - N/A   Clear
5:35 PM 51.8 °F - 23.0 °F 33% 29.80 in 10.0 mi South 9.2 mph - N/A   Clear
5:55 PM 46.4 °F 41.5 °F 26.6 °F 46% 29.80 in 10.0 mi SSE 10.4 mph - N/A   Clear
6:15 PM 44.6 °F 39.2 °F 26.6 °F 49% 29.80 in 10.0 mi SSE 10.4 mph - N/A   Clear
6:35 PM 44.6 °F 39.2 °F 26.6 °F 49% 29.81 in 10.0 mi South 10.4 mph - N/A   Clear
6:55 PM 42.8 °F 37.0 °F 26.6 °F 53% 29.81 in 10.0 mi South 10.4 mph - N/A   Clear
7:15 PM 44.6 °F 38.4 °F 24.8 °F 46% 29.81 in 10.0 mi South 12.7 mph - N/A   Clear
7:35 PM 42.8 °F 36.2 °F 26.6 °F 53% 29.82 in 10.0 mi South 12.7 mph - N/A   Clear
7:55 PM 44.6 °F 38.4 °F 26.6 °F 49% 29.81 in 10.0 mi South 12.7 mph - N/A   Clear
8:15 PM 42.8 °F 36.2 °F 28.4 °F 57% 29.82 in 10.0 mi South 12.7 mph - N/A   Clear
8:35 PM 42.8 °F 36.6 °F 28.4 °F 57% 29.82 in 10.0 mi South 11.5 mph - N/A   Clear
8:55 PM 42.8 °F 35.8 °F 28.4 °F 57% 29.81 in 10.0 mi South 13.8 mph - N/A   Clear
9:15 PM 42.8 °F 37.0 °F 30.2 °F 61% 29.82 in 10.0 mi South 10.4 mph - N/A   Clear
9:35 PM 41.0 °F - 30.2 °F 65% 29.84 in 10.0 mi Calm Calm - N/A   Clear
9:55 PM 41.0 °F 38.0 °F 28.4 °F 61% 29.84 in 10.0 mi NNW 4.6 mph - N/A   Clear
10:15 PM 37.4 °F 34.9 °F 28.4 °F 70% 29.86 in 10.0 mi NNW 3.5 mph - N/A   Clear
10:35 PM 37.4 °F - 28.4 °F 70% 29.86 in 10.0 mi Calm Calm - N/A   Clear
10:55 PM 37.4 °F - 30.2 °F 75% 29.87 in 10.0 mi Calm Calm - N/A   Clear
11:15 PM 37.4 °F - 28.4 °F 70% 29.87 in 10.0 mi Calm Calm - N/A   Clear
11:35 PM 33.8 °F - 28.4 °F 81% 29.88 in 10.0 mi Calm Calm - N/A   Clear
11:55 PM 33.8 °F 29.6 °F 28.4 °F 81% 29.91 in 10.0 mi North 4.6 mph 12.7 mph N/A   Clear